Location: Grisols
(45.0093°N, 3.1167°E)
Time: 20:55:34
(UTC+00:00)

Cosmos 1535 Rocket - Pass Details

Date: 21 October 2019
Orbit: 947 x 1005 km, 83.0° (Epoch: 18 November)

Event Time Altitude Azimuth Distance (km) Brightness Sun altitude
Rises 17:17:57 0° 353° (N) 3,672 7.5 -5.1°
Reaches altitude 10° 17:20:31 10° 357° (N) 2,713 6.8 -5.6°
Maximum altitude 17:26:41 67° 80° (E) 1,033 4.5 -6.6°
Drops below altitude 10° 17:32:44 10° 162° (SSE) 2,667 6.7 -7.7°
Sets 17:35:14 0° 165° (SSE) 3,605 7.4 -8.1°
